When you browse on this site, cookies collect data to enhance your experience and personalize the content and advertising you see.
Visit our Privacy Policy to learn more. By continuing to use the site, you agree to this use of cookies and data.
  • In United Kingdom
  • List of Countries
  • For 7 days
  • Water Temperature
  • Satellite Maps
  • Weather Map
  • Weather Widgets
  • user-avatar
    Login

    Hourly Weather Santiago de Cuba

    Today, 23 February, Saturday

    Time Temperature Precipitation Wind Pressure Humidity
    00:00 +24°C° 0 mm 1 mps 761 mmHg 87%
    01:00 +24°C° 0 mm 1 mps 760 mmHg 88%
    02:00 +23°C° 0 mm 1 mps 760 mmHg 90%
    03:00 +23°C° 0 mm 1 mps 760 mmHg 91%
    04:00 +23°C° 0 mm 1 mps 760 mmHg 92%
    05:00 +23°C° 0 mm 1 mps 760 mmHg 92%
    06:00 +23°C° 0 mm 1 mps 760 mmHg 92%
    07:00 +24°C° 0 mm 1 mps 760 mmHg 92%
    08:00 +26°C° 0 mm 2 mps 761 mmHg 80%
    09:00 +29°C° 0 mm 2 mps 761 mmHg 67%
    10:00 +33°C° 0 mm 3 mps 762 mmHg 55%
    11:00 +34°C° 0 mm 3 mps 761 mmHg 51%
    12:00 +35°C° 0 mm 3 mps 761 mmHg 46%
    13:00 +36°C° 0 mm 3 mps 761 mmHg 41%
    14:00 +35°C° 0 mm 3 mps 760 mmHg 45%
    15:00 +35°C° 0 mm 3 mps 760 mmHg 49%
    16:00 +34°C° 0 mm 4 mps 760 mmHg 52%
    17:00 +31°C° 0 mm 3 mps 760 mmHg 61%
    18:00 +29°C° 0 mm 3 mps 760 mmHg 69%
    19:00 +28°C° 0 mm 2 mps 760 mmHg 77%
    20:00 +27°C° 0 mm 2 mps 760 mmHg 80%
    21:00 +26°C° 0 mm 2 mps 761 mmHg 82%
    22:00 +26°C° 0 mm 2 mps 761 mmHg 85%
    23:00 +25°C° 0 mm 2 mps 761 mmHg 86%

    Tomorrow, 24 February, Sunday

    Time Temperature Precipitation Wind Pressure Humidity
    00:00 +24°C° 0 mm 1 mps 761 mmHg 88%
    01:00 +24°C° 0 mm 1 mps 760 mmHg 89%
    02:00 +24°C° 0 mm 1 mps 760 mmHg 90%
    03:00 +23°C° 0 mm 1 mps 760 mmHg 91%
    04:00 +23°C° 0 mm 1 mps 760 mmHg 92%
    05:00 +23°C° 0 mm 1 mps 760 mmHg 92%
    06:00 +23°C° 0 mm 1 mps 760 mmHg 92%
    07:00 +23°C° 0 mm 1 mps 760 mmHg 91%
    08:00 +26°C° 0 mm 1 mps 761 mmHg 78%
    09:00 +29°C° 0 mm 1 mps 761 mmHg 65%
    10:00 +32°C° 0 mm 1 mps 762 mmHg 51%
    11:00 +34°C° 0 mm 2 mps 761 mmHg 48%
    12:00 +35°C° 0 mm 2 mps 761 mmHg 45%
    13:00 +35°C° 0 mm 3 mps 760 mmHg 42%
    14:00 +35°C° 0 mm 3 mps 760 mmHg 45%
    15:00 +34°C° 0 mm 3 mps 759 mmHg 49%
    16:00 +33°C° 0 mm 3 mps 759 mmHg 53%
    17:00 +30°C° 0 mm 2 mps 759 mmHg 62%
    18:00 +28°C° 0 mm 2 mps 759 mmHg 72%
    19:00 +26°C° 0 mm 1 mps 760 mmHg 81%
    20:00 +25°C° 0 mm 1 mps 760 mmHg 85%
    21:00 +25°C° 0 mm 1 mps 761 mmHg 89%
    22:00 +24°C° 0 mm 1 mps 761 mmHg 93%
    23:00 +24°C° 0 mm 1 mps 761 mmHg 94%

    Day after tomorrow, 25 February, Monday

    Time Temperature Precipitation Wind Pressure Humidity
    00:00 +24°C° 0 mm 1 mps 761 mmHg 95%
    01:00 +22°C° 0 mm 0 mps 760 mmHg 96%
    02:00 +23°C° 0 mm 1 mps 760 mmHg 96%
    03:00 +23°C° 0 mm 1 mps 760 mmHg 96%
    04:00 +23°C° 0 mm 1 mps 760 mmHg 96%
    05:00 +23°C° 0 mm 1 mps 760 mmHg 95%
    06:00 +23°C° 0 mm 1 mps 760 mmHg 94%
    07:00 +23°C° 0 mm 1 mps 761 mmHg 93%
    08:00 +26°C° 0 mm 1 mps 761 mmHg 79%
    09:00 +29°C° 0 mm 1 mps 762 mmHg 64%
    10:00 +32°C° 0 mm 1 mps 762 mmHg 50%
    11:00 +34°C° 0 mm 2 mps 762 mmHg 46%
    12:00 +36°C° 0 mm 2 mps 761 mmHg 42%
    13:00 +37°C° 0 mm 2 mps 760 mmHg 38%
    14:00 +36°C° 0 mm 2 mps 760 mmHg 42%
    15:00 +35°C° 0 mm 2 mps 760 mmHg 46%
    16:00 +34°C° 0 mm 3 mps 759 mmHg 51%
    17:00 +31°C° 0 mm 2 mps 759 mmHg 58%
    18:00 +30°C° 0 mm 2 mps 760 mmHg 66%
    19:00 +28°C° 0 mm 1 mps 760 mmHg 73%
    20:00 +27°C° 0 mm 1 mps 761 mmHg 75%
    21:00 +26°C° 0 mm 2 mps 761 mmHg 77%
    22:00 +26°C° 0 mm 2 mps 762 mmHg 79%
    23:00 +25°C° 0 mm 2 mps 762 mmHg 82%

    26 February, Tuesday

    Time Temperature Precipitation Wind Pressure Humidity
    00:00 +24°C° 0 mm 2 mps 761 mmHg 85%
    01:00 +23°C° 0 mm 2 mps 761 mmHg 88%
    02:00 +23°C° 0 mm 2 mps 761 mmHg 89%
    03:00 +23°C° 0 mm 2 mps 761 mmHg 90%
    04:00 +23°C° 0 mm 2 mps 760 mmHg 91%
    05:00 +23°C° 0 mm 2 mps 761 mmHg 90%
    06:00 +23°C° 0 mm 2 mps 761 mmHg 89%
    07:00 +24°C° 0 mm 2 mps 762 mmHg 87%
    08:00 +26°C° 0 mm 3 mps 762 mmHg 76%
    09:00 +28°C° 0 mm 4 mps 762 mmHg 65%
    10:00 +32°C° 0 mm 4 mps 763 mmHg 54%
    11:00 +33°C° 0 mm 4 mps 762 mmHg 49%
    12:00 +34°C° 0 mm 5 mps 762 mmHg 44%
    13:00 +35°C° 0 mm 5 mps 761 mmHg 39%
    14:00 +35°C° 0 mm 5 mps 761 mmHg 37%
    15:00 +35°C° 0 mm 5 mps 760 mmHg 36%
    16:00 +35°C° 0 mm 5 mps 760 mmHg 34%
    17:00 +33°C° 0 mm 4 mps 760 mmHg 42%
    18:00 +30°C° 0 mm 4 mps 760 mmHg 50%
    19:00 +28°C° 0 mm 3 mps 761 mmHg 57%
    20:00 +27°C° 0 mm 3 mps 761 mmHg 64%
    21:00 +25°C° 0 mm 3 mps 761 mmHg 71%
    22:00 +24°C° 0 mm 2 mps 762 mmHg 77%
    23:00 +24°C° 0 mm 2 mps 761 mmHg 80%

    27 February, Wednesday

    Time Temperature Precipitation Wind Pressure Humidity
    00:00 +24°C° 0 mm 2 mps 761 mmHg 83%
    01:00 +23°C° 0 mm 2 mps 761 mmHg 87%
    02:00 +23°C° 0 mm 2 mps 760 mmHg 88%
    03:00 +23°C° 0 mm 2 mps 760 mmHg 88%
    04:00 +23°C° 0 mm 2 mps 760 mmHg 89%
    05:00 +23°C° 0 mm 2 mps 760 mmHg 88%
    06:00 +23°C° 0 mm 2 mps 760 mmHg 87%
    07:00 +23°C° 0 mm 2 mps 761 mmHg 86%
    08:00 +26°C° 0 mm 3 mps 761 mmHg 74%
    09:00 +28°C° 0 mm 4 mps 761 mmHg 62%
    10:00 +32°C° 0 mm 5 mps 762 mmHg 51%
    11:00 +33°C° 0 mm 5 mps 761 mmHg 47%
    12:00 +34°C° 0 mm 5 mps 761 mmHg 43%
    13:00 +35°C° 0 mm 5 mps 760 mmHg 40%
    14:00 +34°C° 0 mm 5 mps 759 mmHg 42%
    15:00 +34°C° 0 mm 4 mps 759 mmHg 43%
    16:00 +33°C° 0 mm 4 mps 758 mmHg 45%
    17:00 +32°C° 0 mm 4 mps 759 mmHg 53%
    18:00 +29°C° 0 mm 3 mps 759 mmHg 61%
    19:00 +27°C° 0 mm 3 mps 759 mmHg 69%
    20:00 +27°C° 0 mm 2 mps 760 mmHg 73%
    21:00 +26°C° 0 mm 2 mps 760 mmHg 78%
    22:00 +25°C° 0 mm 2 mps 760 mmHg 82%
    23:00 +24°C° 0 mm 1 mps 760 mmHg 84%

    28 February, Thursday

    Time Temperature Precipitation Wind Pressure Humidity
    00:00 +24°C° 0 mm 1 mps 759 mmHg 86%
    01:00 +23°C° 0 mm 1 mps 759 mmHg 88%
    02:00 +23°C° 0 mm 1 mps 759 mmHg 89%
    03:00 +23°C° 0 mm 1 mps 759 mmHg 90%
    04:00 +23°C° 0 mm 1 mps 758 mmHg 91%
    05:00 +23°C° 0 mm 1 mps 759 mmHg 89%
    06:00 +23°C° 0 mm 1 mps 759 mmHg 87%
    07:00 +24°C° 0 mm 1 mps 760 mmHg 85%
    08:00 +27°C° 0 mm 1 mps 760 mmHg 71%
    09:00 +30°C° 0 mm 1 mps 760 mmHg 57%
    10:00 +32°C° 0 mm 0 mps 760 mmHg 43%
    11:00 +34°C° 0 mm 1 mps 760 mmHg 41%
    12:00 +36°C° 0 mm 2 mps 759 mmHg 39%
    13:00 +36°C° 0 mm 2 mps 759 mmHg 37%
    14:00 +36°C° 0 mm 2 mps 758 mmHg 40%
    15:00 +35°C° 0 mm 2 mps 758 mmHg 43%
    16:00 +34°C° 0 mm 3 mps 757 mmHg 46%
    17:00 +31°C° 0 mm 2 mps 758 mmHg 56%
    18:00 +29°C° 0 mm 1 mps 758 mmHg 66%
    19:00 +27°C° 0 mm 1 mps 758 mmHg 76%
    20:00 +26°C° 0 mm 1 mps 759 mmHg 80%
    21:00 +23°C° 0 mm 0 mps 759 mmHg 84%
    22:00 +23°C° 0 mm 0 mps 759 mmHg 88%
    23:00 +22°C° 0 mm 0 mps 759 mmHg 88%
    Show more